Find Starlink 1362

NORAD ID: 45538 Int'l Des: 2020-025 Owner: SPXS Country: US Constellation: starlink operational
LEOCIRCULAR

实时位置

正在加载3D地球...

关于 Starlink 1362

正在加载描述...

即将过境

Passes for default location (London). Set your location on the main map for personalized predictions.

高度历史

Loading altitude history...

两行轨道根数

1 45538U 20025H 26124.50514697 -.00129640 00000-0 -39257-2 0 9998
2 45538 53.1584 201.0877 0002436 42.3401 317.7789 15.34125469333738
Epoch: May 4, 2026 • Age: 16 hours

当前状态

高度 469.5 km
速度 7.64 km/s
星下点 52.82°N, 13.07°E
发射日期 Apr 22, 2020
运行时间 6 years
类型 internet

技术详情

分类 Payload
质量 260.00 kg
干质量 248.00 kg
总质量 260.00 kg
长度 0.20 m
直径 2.80 m
跨度 9.00 m
形状 Box + pan
制造商 SPXS
平台类型 Starlink
阶段状态 In Orbit
所有者/国家 SPXS/US

Most Searched